| time (UTC) | temp F | wind direction | speed knots | gust knots | rain 1hr in | rain 24hr in | rain mn in | humidity % | barometer mb |
| 20260502162040 | 76 | 216 | 1.7 | 6.1 | 0.00 | 0.00 | 0.00 | 37 | 1016.1 |
| 20260502161021 | 77 | 198 | 0.9 | 2.6 | 0.00 | 0.00 | 0.00 | 35 | 1016.2 |
| 20260502160114 | 77 | 180 | 0.0 | 1.7 | 0.00 | 0.00 | 0.00 | 34 | 1016.3 |
| 20260502151059 | 78 | 167 | 0.9 | 3.5 | 0.00 | 0.00 | 0.00 | 31 | 1016.7 |
| 20260502123109 | 78 | 90 | 0.0 | 2.6 | 0.00 | 0.00 | 0.00 | 34 | 1018.8 |
| 20260502122105 | 78 | 179 | 0.9 | 3.5 | 0.00 | 0.00 | 0.00 | 35 | 1019.0 |
| 20260502121102 | 78 | 195 | 1.7 | 3.5 | 0.00 | 0.00 | 0.00 | 34 | 1019.1 |
| 20260502115056 | 77 | 122 | 1.7 | 6.1 | 0.00 | 0.00 | 0.00 | 35 | 1019.4 |
| 20260502114053 | 77 | 79 | 0.9 | 3.5 | 0.00 | 0.00 | 0.00 | 37 | 1019.6 |
| 20260502113110 | 76 | 81 | 0.9 | 2.6 | 0.00 | 0.00 | 0.00 | 38 | 1019.7 |
| 20260502112046 | 76 | 70 | 1.7 | 3.5 | 0.00 | 0.00 | 0.00 | 37 | 1019.9 |
| 20260502111103 | 76 | 180 | 0.0 | 2.6 | 0.00 | 0.00 | 0.00 | 39 | 1019.9 |
| 20260502105037 | 74 | 33 | 0.9 | 3.5 | 0.00 | 0.00 | 0.00 | 40 | 1020.2 |
| 20260502104034 | 73 | 95 | 0.9 | 3.5 | 0.00 | 0.00 | 0.00 | 42 | 1020.3 |
| 20260502103030 | 73 | 136 | 1.7 | 6.1 | 0.00 | 0.00 | 0.00 | 41 | 1020.5 |
| 20260502102027 | 73 | 108 | 1.7 | 4.3 | 0.00 | 0.00 | 0.00 | 41 | 1020.6 |
| 20260502101024 | 72 | 45 | 0.9 | 3.5 | 0.00 | 0.00 | 0.00 | 43 | 1020.8 |
| 20260502091055 | 68 | 137 | 1.7 | 6.1 | 0.00 | 0.00 | 0.00 | 51 | 1021.5 |
| 20260502071017 | 56 | 90 | 0.0 | 1.7 | 0.00 | 0.00 | 0.00 | 73 | 1022.7 |
| 20260502065111 | 53 | 0.0 | 1.7 | 0.00 | 0.00 | 0.00 | 78 | 1022.8 | |
| 20260502064108 | 52 | 0.0 | 0.0 | 0.00 | 0.00 | 0.00 | 80 | 1022.9 | |
| 20260502063107 | 51 | 0.0 | 0.0 | 0.00 | 0.00 | 0.00 | 82 | 1022.9 | |
| 20260502062101 | 49 | 0.0 | 0.0 | 0.00 | 0.00 | 0.00 | 83 | 1022.8 | |
| 20260502061058 | 47 | 0.0 | 0.0 | 0.00 | 0.00 | 0.00 | 87 | 1022.9 | |
| 20260502060055 | 46 | 0.0 | 0.0 | 0.00 | 0.00 | 0.00 | 87 | 1022.9 | |
| 20260502054048 | 45 | 0.0 | 0.0 | 0.00 | 0.00 | 0.00 | 88 | 1022.9 | |
| 20260502052042 | 43 | 0.0 | 0.0 | 0.00 | 0.00 | 0.00 | 91 | 1022.9 | |
| 20260502050056 | 41 | 0.0 | 0.0 | 0.00 | 0.00 | 0.00 | 99 | 1022.9 | |
| 20260502045053 | 39 | 0.0 | 0.0 | 0.00 | 0.00 | 0.00 | 99 | 1022.9 | |
| 20260502044030 | 36 | 0.0 | 0.0 | 0.00 | 0.00 | 0.00 | 99 | 1022.9 | |
| 20260502043026 | 34 | 0.0 | 0.0 | 0.00 | 0.00 | 0.00 | 99 | 1022.8 | |
| 20260502042023 | 33 | 0.0 | 0.0 | 0.00 | 0.00 | 0.00 | 99 | 1022.9 | |
| 20260502041020 | 33 | 0.0 | 0.0 | 0.00 | 0.00 | 0.00 | 99 | 1022.9 | |
| 20260502040016 | 33 | 0.0 | 0.0 | 0.00 | 0.00 | 0.00 | 99 | 1023.0 | |
| 20260502035133 | 32 | 0.0 | 0.0 | 0.00 | 0.00 | 0.00 | 99 | 1023.0 | |
| 20260502034111 | 32 | 0.0 | 0.0 | 0.00 | 0.00 | 0.00 | 99 | 1023.0 | |
| 20260502025055 | 34 | 0.0 | 0.0 | 0.00 | 0.00 | 0.00 | 99 | 1023.2 | |
| 20260502024051 | 35 | 0.0 | 0.0 | 0.00 | 0.00 | 0.00 | 99 | 1023.3 | |
| 20260502023048 | 34 | 0.0 | 0.0 | 0.00 | 0.00 | 0.00 | 99 | 1023.3 | |
| 20260502020039 | 34 | 0.0 | 0.0 | 0.00 | 0.00 | 0.00 | 99 | 1023.4 | |
| 20260502015035 | 35 | 0.0 | 0.0 | 0.00 | 0.00 | 0.00 | 99 | 1023.3 | |
| 20260502014032 | 35 | 0.0 | 0.0 | 0.00 | 0.00 | 0.00 | 99 | 1023.4 | |
| 20260502012046 | 35 | 0.0 | 0.0 | 0.00 | 0.00 | 0.00 | 99 | 1023.4 | |
| 20260502010019 | 36 | 0.0 | 0.0 | 0.00 | 0.00 | 0.00 | 99 | 1023.3 | |
| 20260502005036 | 36 | 0.0 | 0.0 | 0.00 | 0.00 | 0.00 | 99 | 1023.4 | |
| 20260502004133 | 36 | 0.0 | 0.0 | 0.00 | 0.00 | 0.00 | 99 | 1023.4 | |
| 20260502002126 | 36 | 0.0 | 0.0 | 0.00 | 0.00 | 0.00 | 99 | 1023.4 | |
| 20260502000100 | 37 | 0.0 | 0.0 | 0.00 | 0.00 | 0.00 | 99 | 1023.5 | |
| 20260501235057 | 37 | 0.0 | 0.0 | 0.00 | 0.00 | 0.00 | 99 | 1023.6 | |
| 20260501234114 | 37 | 0.0 | 0.0 | 0.00 | 0.00 | 0.00 | 99 | 1023.6 | |
| 20260501233050 | 37 | 0.0 | 0.0 | 0.00 | 0.00 | 0.00 | 98 | 1023.7 | |
| 20260501231104 | 38 | 0.0 | 0.0 | 0.00 | 0.00 | 0.00 | 97 | 1023.7 | |
| 20260501230041 | 39 | 0.0 | 0.0 | 0.00 | 0.00 | 0.00 | 98 | 1023.8 | |
| 20260501224034 | 39 | 0.0 | 0.0 | 0.00 | 0.00 | 0.00 | 98 | 1023.8 | |
| 20260501223032 | 40 | 0.0 | 0.0 | 0.00 | 0.00 | 0.00 | 96 | 1023.8 | |
| 20260501221025 | 41 | 0.0 | 0.0 | 0.00 | 0.00 | 0.00 | 97 | 1023.8 | |
| 20260501220022 | 41 | 0.0 | 0.0 | 0.00 | 0.00 | 0.00 | 95 | 1023.8 | |
| 20260501215019 | 42 | 0.0 | 0.0 | 0.00 | 0.00 | 0.00 | 94 | 1023.8 | |
| 20260501214016 | 44 | 0.0 | 0.0 | 0.00 | 0.00 | 0.00 | 94 | 1023.7 | |
| 20260501213113 | 52 | 0.0 | 0.0 | 0.00 | 0.00 | 0.00 | 95 | 1023.6 | |
| 20260501212110 | 0 | 0.0 | 0.0 | 0.00 | 0.00 | 0.00 | 1 | 1023.6 | |
| 20260501211107 | 0 | 0.0 | 0.0 | 0.00 | 0.00 | 0.00 | 1 | 1023.7 | |
| 20260501210103 | 0 | 0.0 | 0.0 | 0.00 | 0.00 | 0.00 | 1 | 1023.7 | |
| 20260501205100 | 0 | 0.0 | 0.0 | 0.00 | 0.00 | 0.00 | 1 | 1023.8 | |
| 20260501204057 | 0 | 0.0 | 0.0 | 0.00 | 0.00 | 0.00 | 1 | 1023.8 | |
| 20260501203054 | 0 | 0.0 | 0.0 | 0.00 | 0.00 | 0.00 | 1 | 1023.7 | |
| 20260501202051 | 0 | 0.0 | 0.0 | 0.00 | 0.00 | 0.00 | 1 | 1023.7 | |
| 20260501201108 | 0 | 0.0 | 0.9 | 0.00 | 0.00 | 0.00 | 1 | 1023.6 | |
| 20260501200045 | 0 | 0.0 | 0.0 | 0.00 | 0.00 | 0.00 | 1 | 1023.6 | |
| 20260501195042 | 0 | 0.0 | 0.0 | 0.00 | 0.00 | 0.00 | 1 | 1023.6 | |
| 20260501192032 | 0 | 0.0 | 0.9 | 0.00 | 0.00 | 0.00 | 1 | 1023.5 | |
| 20260501191029 | 0 | 0.0 | 0.0 | 0.00 | 0.00 | 0.00 | 1 | 1023.6 | |
| 20260501185023 | 0 | 0.0 | 0.9 | 0.00 | 0.00 | 0.00 | 1 | 1023.4 | |
| 20260501184039 | 0 | 0.0 | 0.0 | 0.00 | 0.00 | 0.00 | 1 | 1023.5 | |
| 20260501183016 | 56 | 0.0 | 0.9 | 0.00 | 0.00 | 0.00 | 24 | 1023.4 | |
| 20260501181131 | 63 | 270 | 0.0 | 1.7 | 0.00 | 0.00 | 0.00 | 63 | 1023.3 |
| 20260501180107 | 70 | 0.0 | 0.0 | 0.00 | 0.00 | 0.00 | 52 | 1023.4 | |
| 20260501174101 | 69 | 0.0 | 1.7 | 0.00 | 0.00 | 0.00 | 43 | 1023.2 |